RH
12 11 11 11 11 12 11 10 10 9 8 8 7 7 7 6 5 5 5 4 4 3 3 3 3 3 3 3 3 5 9 12 13 14 15 18 21 25 27 29 27 24 21 20 18 15 15 16 16 17 18 19 18 18 20 20 19 21 25 22 20 24 23 26 31 28 32 36 34 36 38 39 40 40 41 44 45 48 53 56 61 66 69 70 70 68 70 69
13 12 11 12 12 12 11 11 10 9 8 8 8 7 7 6 5 5 5 4 3 3 3 3 3 3 3 3 2 3 7 10 11 13 15 17 19 23 27 28 25 22 19 19 17 15 16 16 16 17 17 17 17 18 19 18 18 21 23 21 20 23 22 24 28 27 32 34 32 36 36 37 39 38 40 44 43 44 49 51 55 61 63 63 64 64 66 67
13 12 12 12 12 12 12 11 11 10 9 9 9 8 7 7 6 5 4 4 4 3 3 3 3 3 3 3 3 3 5 10 12 14 17 17 18 22 26 26 23 20 19 18 16 15 15 16 16 17 17 17 18 18 18 19 19 20 22 21 19 21 23 24 27 28 31 32 32 34 35 36 37 37 39 41 42 42 46 48 49 56 59 60 60 58 60 63
13 13 13 12 11 11 11 11 12 11 10 10 10 9 8 8 7 6 5 4 4 4 3 3 3 3 3 3 3 3 6 11 13 16 18 17 18 21 24 24 21 19 18 17 17 16 15 16 17 17 18 18 18 18 18 19 19 18 20 20 19 21 24 23 26 29 30 33 33 33 34 35 35 37 35 39 47 47 45 46 46 51 55 57 59 58 57 58
10 11 12 12 12 11 11 11 12 11 11 10 11 10 9 9 7 6 5 4 4 4 3 4 4 3 3 3 3 4 8 11 13 16 18 17 18 20 22 22 20 18 17 16 17 17 16 16 16 17 18 18 18 18 18 18 20 20 18 19 18 21 24 22 25 29 31 33 33 33 33 33 34 35 33 35 44 45 42 42 44 49 52 54 57 58 57 58
8 9 10 11 12 12 11 11 11 11 11 11 11 10 10 9 8 7 6 5 4 4 4 4 3 3 3 3 3 5 10 14 13 16 18 18 18 19 22 20 18 18 16 15 17 17 17 16 16 17 18 17 18 17 17 17 20 22 18 18 18 20 22 21 24 28 29 32 33 34 33 32 33 33 33 33 36 37 36 38 41 46 49 51 55 57 59 59
8 8 8 9 10 11 11 11 10 11 11 11 11 10 10 10 8 7 7 5 4 4 4 4 4 4 3 3 5 7 12 15 14 16 18 19 18 19 21 18 18 17 14 15 17 16 16 17 17 17 16 17 17 17 17 17 18 20 18 18 18 19 21 21 24 28 28 30 32 34 34 33 33 32 33 34 34 35 36 38 40 43 45 49 54 56 59 61
6 7 7 7 7 9 10 10 11 11 10 11 11 10 10 10 9 8 7 6 5 4 4 5 4 4 3 4 6 9 13 15 14 15 18 18 18 19 19 17 17 16 14 15 16 16 16 17 17 17 17 16 17 17 18 18 18 17 17 18 20 20 22 23 25 28 29 31 34 34 34 35 35 33 32 33 36 36 37 38 39 43 45 47 51 54 58 61
6 6 6 6 6 7 7 8 9 10 11 11 11 11 10 10 9 8 7 6 5 5 5 6 6 5 4 5 8 12 14 14 14 14 15 17 18 19 19 17 16 15 14 16 16 16 16 16 17 17 17 16 15 16 17 18 17 15 15 17 21 21 22 25 25 28 30 31 34 33 33 36 37 36 35 33 36 37 38 38 39 42 44 46 48 51 54 57
7 6 6 5 5 5 6 7 7 8 10 11 11 11 10 10 9 9 7 6 5 5 6 7 7 6 5 6 10 15 15 13 14 13 14 18 19 18 18 16 16 15 15 16 16 16 15 16 17 17 17 15 15 16 17 17 16 15 15 16 20 21 22 25 25 28 29 30 33 32 31 35 37 41 40 35 36 39 39 39 39 41 43 45 46 48 50 53
7 7 6 5 5 5 5 5 6 7 8 10 11 11 10 9 9 9 7 6 5 5 6 7 7 6 5 6 12 16 14 13 14 13 14 18 19 17 17 16 16 16 16 17 17 16 15 15 16 16 17 15 15 16 17 17 16 16 17 18 19 19 22 25 26 27 28 29 32 31 30 34 37 40 41 38 39 40 40 41 41 41 42 44 46 47 48 50
7 7 6 6 5 4 4 5 5 6 7 9 10 10 9 9 9 9 8 6 5 4 6 6 5 5 5 6 10 14 13 13 15 15 15 17 17 16 16 15 15 16 17 17 18 16 16 16 15 16 16 15 15 15 16 16 17 17 17 20 21 21 25 25 26 27 27 28 30 33 34 34 36 37 37 38 39 40 40 41 41 41 42 43 45 47 48 49
7 6 6 6 5 4 4 4 4 5 7 9 10 9 9 9 9 8 7 6 5 4 4 4 4 4 6 7 8 10 12 13 15 16 16 15 15 15 15 15 16 18 17 18 18 16 16 17 16 16 15 15 14 15 15 14 17 18 17 19 19 25 29 25 27 28 27 28 29 33 33 31 32 33 35 37 39 40 40 41 41 42 42 42 44 45 47 49
7 6 6 5 5 4 3 4 4 5 7 8 9 9 9 9 8 7 7 6 5 4 4 4 3 4 7 8 8 9 10 12 14 16 16 15 16 16 15 15 17 18 18 18 18 17 17 17 16 16 15 15 14 14 14 15 16 16 18 19 17 23 26 21 25 28 27 28 27 30 31 29 28 30 34 37 38 39 39 40 41 42 43 43 44 44 45 48
7 6 6 5 5 4 3 3 4 4 6 8 8 9 8 8 8 7 6 6 5 4 4 4 4 5 7 9 8 9 9 11 14 16 15 16 17 17 15 16 17 18 18 19 18 18 17 17 16 16 15 14 14 14 14 15 16 15 19 22 18 18 20 20 23 25 27 28 26 29 31 29 26 27 32 34 36 38 38 39 41 43 45 44 44 44 44 45
7 6 6 5 5 4 4 4 4 5 6 7 8 8 8 8 7 6 6 5 5 4 4 5 4 6 9 10 9 8 9 10 13 14 14 15 17 17 16 17 17 18 18 18 19 19 18 17 16 15 15 14 14 14 13 16 18 16 17 19 17 16 17 21 23 23 26 26 26 27 27 27 27 26 29 30 32 35 37 39 40 42 45 45 45 44 43 44
8 7 6 5 4 4 4 4 5 6 6 7 7 8 8 7 7 5 5 4 5 5 4 5 5 7 9 10 9 8 8 9 11 13 14 15 16 16 16 16 17 17 17 18 19 19 18 17 16 14 14 14 14 13 14 19 21 17 16 16 17 16 16 19 22 23 24 24 25 26 25 25 26 24 25 28 30 31 34 38 39 42 44 45 46 46 44 44
8 7 6 6 5 5 4 5 5 6 7 7 7 8 8 7 6 5 5 4 5 6 5 5 6 8 9 9 9 9 8 9 10 12 13 13 15 15 15 16 16 17 17 17 18 18 19 17 15 14 14 14 14 13 15 18 17 15 15 15 15 16 15 15 18 21 22 22 23 24 25 24 24 25 24 26 28 29 32 36 38 40 43 43 45 46 44 44
8 7 6 5 5 5 5 5 6 7 7 7 7 8 7 6 6 5 5 5 6 7 7 6 6 9 11 9 9 8 8 8 8 10 12 13 13 13 14 15 16 17 18 18 18 17 18 16 14 13 13 13 13 13 13 14 13 13 13 14 14 14 14 13 14 18 18 20 23 23 24 23 23 25 24 24 27 29 30 33 37 40 41 43 45 45 45 45
8 7 5 5 5 5 5 5 6 7 7 8 7 7 7 6 6 6 6 5 6 7 6 6 6 9 11 10 8 8 8 8 7 9 10 12 12 12 13 14 15 17 17 20 19 15 16 16 15 13 13 13 12 13 13 13 14 13 13 13 12 12 13 13 14 18 19 19 23 23 22 21 21 22 21 22 26 29 31 35 38 40 40 42 45 44 43 44
7 6 5 5 5 5 6 6 7 8 7 7 6 7 8 7 6 7 6 6 6 5 6 6 6 8 10 9 8 8 8 7 7 8 9 10 11 12 13 13 15 16 15 18 17 14 15 15 15 13 12 12 11 12 13 13 13 13 13 12 13 13 13 12 13 17 19 19 22 21 19 20 20 20 20 21 26 29 31 35 38 40 40 41 43 42 41 43
6 5 5 5 6 6 6 7 7 7 7 6 7 9 9 8 8 7 6 7 6 5 6 5 6 9 9 9 8 8 7 7 7 7 8 9 10 11 12 12 14 15 14 14 16 15 16 15 14 12 11 11 11 12 12 13 13 13 12 11 15 15 11 15 18 17 18 19 20 20 18 19 19 19 22 24 27 29 32 36 38 40 41 41 42 41 40 41
6 5 5 5 6 6 7 7 7 7 7 8 9 10 9 8 8 7 7 7 6 6 7 7 9 10 9 9 8 7 8 9 8 8 8 8 9 10 11 11 12 13 12 12 14 17 16 14 12 10 9 10 10 11 12 12 13 13 12 12 16 14 10 16 19 16 18 18 18 19 19 19 20 23 26 29 31 32 36 37 39 41 42 43 43 42 41 40
5 5 5 6 6 7 7 7 7 7 8 8 9 9 8 8 8 8 8 8 8 8 9 10 11 10 9 9 8 7 9 9 9 9 7 8 9 9 9 10 10 11 11 11 12 14 13 12 10 8 8 10 10 11 11 12 13 13 12 12 13 12 9 11 12 12 17 20 20 20 20 21 23 26 28 29 32 35 38 39 39 42 43 44 44 43 43 41
5 5 6 7 6 7 6 7 7 7 8 9 9 9 9 9 8 8 8 9 10 10 11 11 11 10 9 8 8 8 8 8 8 9 8 7 8 8 9 9 9 10 9 8 9 9 10 9 7 7 7 9 10 10 10 11 13 15 13 11 11 10 9 10 10 10 15 23 24 19 19 22 24 26 28 27 29 33 36 36 38 42 43 44 44 44 44 43
5 5 6 7 7 7 7 7 7 8 9 9 9 10 10 9 8 9 10 11 11 12 12 11 11 11 10 8 8 8 8 8 7 7 7 7 7 7 8 7 8 8 7 6 7 7 8 7 7 7 7 8 9 9 10 10 12 17 15 11 10 10 10 10 10 11 14 19 20 16 17 22 23 25 27 26 28 33 35 36 39 42 42 42 42 43 45 44
5 6 7 6 7 7 7 8 8 10 11 10 10 10 10 9 8 10 12 14 14 12 12 12 11 11 10 9 8 8 10 9 6 6 7 6 6 6 7 7 6 7 6 6 6 7 7 7 7 7 7 8 8 9 10 9 11 16 14 9 10 11 10 9 9 12 14 14 15 16 17 20 22 25 27 27 30 31 33 38 39 41 41 39 40 41 42 43
6 6 7 7 7 7 8 9 11 13 12 11 10 9 9 9 10 12 14 15 16 13 11 12 11 10 10 8 8 10 11 9 7 8 7 6 6 6 7 7 6 7 6 6 9 10 8 8 8 8 8 8 9 10 10 9 10 12 11 9 11 10 9 10 9 12 14 12 16 19 17 18 21 25 27 30 33 31 32 38 40 40 40 38 38 38 39 41
7 6 7 7 7 7 8 11 13 13 12 11 10 9 9 11 13 13 14 15 14 11 11 11 10 10 9 9 9 10 9 9 10 9 7 8 7 7 7 7 7 8 6 6 10 11 9 9 9 9 8 9 10 10 9 9 9 10 10 9 10 9 9 10 10 13 14 12 16 19 17 17 19 24 29 30 32 32 33 38 39 38 36 35 37 38 38 39
8 7 7 7 7 8 9 12 13 11 11 11 10 8 11 14 14 13 13 13 12 10 10 11 10 10 9 10 10 9 9 10 11 9 7 8 8 7 8 7 7 8 7 7 8 9 9 9 10 10 10 10 10 10 9 9 10 10 10 9 9 9 9 10 11 13 14 15 19 18 16 17 18 23 28 28 30 33 33 36 37 34 33 35 36 37 37 38
8 7 7 7 8 8 9 12 11 10 11 10 9 9 12 13 13 15 13 10 10 9 9 10 10 10 10 10 11 10 10 11 10 9 9 9 8 9 9 8 8 8 9 9 8 8 8 9 10 11 11 11 11 11 10 10 10 10 9 8 9 11 12 12 14 15 14 18 21 19 17 18 19 24 29 28 29 30 31 34 34 32 32 35 36 36 37 37
9 8 7 8 8 9 11 12 11 11 10 10 10 11 13 13 14 16 11 8 10 9 8 9 9 10 10 10 12 11 12 12 11 10 11 10 10 10 10 10 10 10 11 11 10 9 9 10 10 13 13 13 12 13 12 11 11 10 9 8 9 14 16 15 17 18 17 19 21 19 19 20 22 27 30 28 28 28 29 32 32 31 33 35 35 36 37 36
10 10 9 9 10 11 12 12 11 12 11 11 12 12 15 18 15 13 9 9 11 9 7 8 8 10 11 11 12 12 13 13 12 12 12 11 11 10 10 10 10 11 13 12 11 12 13 13 12 13 14 13 13 14 14 13 13 11 10 9 11 15 17 17 17 18 17 19 20 19 19 22 25 26 26 28 27 26 28 31 32 33 34 34 34 34 35 37
11 12 11 11 12 13 13 13 13 13 12 13 14 14 19 21 15 12 10 10 10 8 8 8 8 10 11 11 12 12 13 13 12 12 11 10 12 12 11 10 10 12 13 13 12 14 18 20 18 15 15 15 14 13 14 13 13 12 10 10 12 14 15 17 17 18 18 19 20 20 21 25 26 24 24 26 26 26 29 32 33 35 36 35 34 32 34 37
13 13 12 12 13 13 14 14 13 14 15 16 18 21 24 21 15 15 14 10 9 9 9 9 10 11 10 10 11 11 13 14 12 12 12 12 14 15 14 13 12 13 13 13 14 13 17 22 20 16 16 16 15 14 14 13 14 13 12 12 14 14 14 15 16 16 17 17 20 22 22 24 24 23 24 25 26 27 29 32 35 36 34 33 33 34 35 38
13 14 14 13 14 14 13 14 15 16 18 19 22 24 24 20 17 18 16 12 11 10 10 10 11 12 11 11 12 12 13 14 12 13 14 15 16 16 15 14 13 13 13 14 15 14 17 21 18 16 17 17 17 17 14 14 15 15 14 14 15 15 14 15 17 18 16 17 22 23 22 23 24 26 28 29 32 34 35 36 37 37 35 32 33 35 37 39
14 14 15 16 15 15 15 17 19 21 20 20 23 23 20 18 16 16 15 14 13 11 11 12 12 13 14 13 14 14 13 14 14 15 15 15 15 16 14 14 14 14 13 14 16 16 18 24 21 17 19 19 20 20 18 16 16 16 17 17 16 15 15 15 18 20 19 19 22 23 20 21 27 32 32 31 33 37 38 38 38 38 37 34 34 36 38 39
14 15 18 18 18 19 20 21 21 21 20 20 23 21 18 19 17 14 14 14 13 12 12 14 13 13 14 14 15 15 15 15 15 16 16 15 17 17 16 16 15 15 15 14 17 18 18 24 25 19 20 22 21 22 22 21 19 18 20 18 18 19 20 19 19 19 21 20 20 23 21 23 31 34 33 33 35 36 38 39 40 39 37 35 35 37 39 40
14 16 18 20 23 24 23 22 21 21 20 21 22 20 18 19 17 15 16 15 13 13 14 14 13 13 14 15 15 15 16 17 16 16 17 17 20 20 18 19 17 17 17 16 18 20 19 23 27 24 23 23 22 22 24 24 23 21 21 20 21 21 21 22 20 18 20 20 21 23 23 29 37 35 32 36 39 40 41 42 42 39 37 37 37 39 41 42
16 17 20 23 26 25 22 22 22 21 21 20 21 20 18 18 17 17 17 16 16 16 17 16 14 15 17 17 17 16 17 18 16 17 18 18 20 22 20 20 21 19 20 20 21 23 23 25 27 28 26 25 26 26 25 26 25 24 24 24 25 23 22 23 22 21 20 20 24 24 25 35 39 34 33 37 38 39 40 40 40 39 39 39 40 42 43 44
17 18 21 24 26 23 23 24 22 21 22 21 20 19 19 19 18 18 19 19 19 19 19 19 19 20 21 20 20 19 19 20 19 18 19 19 20 22 22 22 23 23 23 25 25 26 28 28 28 29 29 28 29 28 27 27 26 26 26 26 26 25 24 25 26 27 24 23 26 26 30 42 41 34 37 39 38 39 39 39 40 41 42 43 43 45 46 46
19 20 23 25 25 25 25 24 22 22 22 21 21 20 21 21 20 20 21 22 22 22 21 22 23 23 23 24 23 22 22 22 22 21 22 22 21 23 24 24 25 26 26 27 28 29 30 30 30 31 31 30 30 28 28 28 27 27 27 27 28 27 27 27 29 32 29 28 29 25 31 45 45 37 39 40 39 40 39 40 42 43 44 45 45 47 49 49
19 22 24 25 26 28 27 25 23 22 22 21 21 21 21 21 22 22 23 23 24 24 24 26 27 26 26 26 25 25 25 25 24 24 24 24 24 24 25 25 26 27 28 28 30 30 31 32 32 33 32 31 30 29 29 28 28 28 29 29 29 29 29 28 28 29 29 32 33 29 37 52 51 45 42 39 40 42 41 42 43 44 45 45 46 48 49 50
19 21 23 24 27 29 28 26 25 23 23 22 22 23 22 22 23 24 24 24 25 26 27 28 29 29 29 28 27 27 28 27 27 27 26 26 26 26 26 26 26 28 29 31 31 30 31 34 34 33 35 34 34 33 32 31 30 29 31 30 30 30 29 28 30 30 29 34 34 30 41 56 54 49 46 40 41 44 43 44 45 45 46 45 46 47 48 49
20 21 23 26 29 29 27 27 25 24 24 23 23 24 23 23 24 24 25 25 26 26 28 29 30 31 31 30 30 30 30 30 30 29 29 29 29 28 28 28 28 28 30 33 32 30 32 34 34 34 36 37 38 39 37 35 32 31 32 31 30 29 28 29 31 31 32 37 35 30 41 53 53 49 47 43 43 44 45 48 49 47 48 48 47 47 48 49
22 23 25 27 29 28 27 27 26 24 24 24 24 23 23 24 25 24 25 25 26 26 27 28 29 30 31 32 32 32 32 32 31 31 31 31 31 31 31 31 30 30 32 33 32 31 32 33 34 34 35 35 36 37 35 32 31 32 33 32 31 29 28 28 28 31 34 34 34 35 41 50 54 48 44 45 46 44 46 53 55 51 50 50 48 48 48 48
24 26 26 27 27 28 27 26 25 25 25 24 25 24 24 24 24 25 25 26 26 26 26 27 27 27 29 30 30 32 32 32 32 32 32 32 32 32 31 32 31 30 31 32 31 31 32 33 33 33 33 32 33 33 31 30 31 31 31 32 32 30 28 27 25 31 33 29 34 44 45 49 54 47 43 50 51 47 50 56 59 57 55 54 52 51 50 50
26 28 28 27 27 27 27 28 26 26 25 25 25 25 25 24 25 25 26 26 27 26 27 28 27 26 27 27 28 29 30 31 31 31 31 31 31 30 30 31 31 30 30 29 29 30 31 32 33 31 31 30 30 30 30 30 30 31 31 31 30 29 28 27 27 30 29 26 34 44 43 45 49 45 46 54 55 52 54 55 56 57 56 55 54 54 53 53
28 29 28 27 27 26 27 29 28 26 27 27 26 26 27 27 26 26 25 26 26 25 26 27 27 27 26 26 27 28 28 29 29 29 30 30 30 30 29 29 29 29 28 28 28 28 29 31 30 29 29 29 27 27 27 27 29 30 31 29 27 27 26 25 25 25 24 27 34 37 36 38 41 43 48 53 53 53 53 53 55 55 55 55 53 53 55 55
29 30 29 28 28 28 27 28 28 27 28 28 28 27 27 27 27 27 26 27 27 27 27 28 28 28 27 26 26 26 26 26 26 27 27 27 27 27 27 27 26 26 26 26 27 26 28 30 29 27 28 27 26 25 24 26 28 30 32 30 25 24 25 26 28 26 26 33 39 39 40 43 42 42 45 47 48 49 49 51 54 55 56 58 57 57 57 57
28 29 29 28 28 30 29 28 28 29 28 28 28 28 28 28 28 28 28 28 28 28 27 27 27 27 26 25 25 25 24 25 24 24 24 25 24 24 24 24 23 23 24 24 24 24 25 27 26 26 26 26 25 23 23 27 29 27 28 31 27 25 25 29 32 31 32 38 43 43 47 51 49 45 45 45 46 46 47 50 53 54 56 59 60 60 59 57
26 28 29 29 29 30 29 28 28 28 29 29 29 28 28 28 27 27 28 28 27 27 26 25 24 23 22 21 22 22 22 22 22 22 22 22 21 20 20 20 20 20 20 21 22 22 22 23 23 23 24 24 22 21 24 27 25 23 26 30 30 30 28 30 33 33 34 39 43 47 50 51 49 47 48 48 48 50 52 53 53 55 56 57 56 56 56 55